Вернуться в каталог

COSMOS 970 DEB

АктивенLEO
NORAD 12866·DEBRIS·🇷🇺 Russia

Запущен Dec 21, 1977 с Baikonur Cosmodrome

Loading…

Ближайшие Пролёты (ближайшие 24 часа)

TLE

СвежийSource: Space-Track

Эпоха: Sep 14, 2026, 14:33 UTC

1 12866U 77121AU  26257.60646182  .00000020  00000-0  12787-3 0  9996
2 12866  65.8162 129.0981 0110482 323.9733  57.8209 13.58518246316126

Отслеживайте COSMOS 970 DEB в реальном времени с AllMySat

Download on the App Store